Location: Bay Harbour
(38.2612°N, 75.2555°W)
Time: 00:53:56
(UTC+00:00)

USA 308 - Pass Details

Date: 29 October 2020
Orbit: 571 x 578 km, 54.0° (Epoch: 30 November)

Event Time Altitude Azimuth Distance (km) Brightness Sun altitude
Rises 23:32:23 0° 318° (NW) 2,784 7.0 -17.8°
Reaches altitude 10° 23:34:47 10° 326° (NW) 1,882 5.9 -18.3°
Maximum altitude 23:38:48 38° 36° (NE) 878 3.5 -19.1°
Enters shadow 23:39:03 38° 45° (NE) 884 3.5 -19.1°
